Ketchikan, AK

3:51 PM AKST on November 15, 2018 (GMT -0900)
Ketchikan International

Weather History for PAKT - July, 2018

Change the Weather History Date:

Tuesday, July 3, 2018

  Actual Average Record
Temperature  
Mean Temperature 62 °F -  
Max Temperature 73 °F 63 °F 80 °F (1968)
Min Temperature 52 °F 49 °F 39 °F (2002)
Degree Days  
Heating Degree Days 3    
Growing Degree Days 12 (Base 50)    
Moisture  
Dew Point 50 °F    
Average Humidity 66    
Maximum Humidity 86    
Minimum Humidity 46    
Precipitation  
Precipitation 0.00 in - - ()
Sea Level Pressure  
Sea Level Pressure 30.18 in    
Wind  
Wind Speed 7 mph (NW)    
Max Wind Speed 15 mph    
Max Gust Speed -    
Visibility 10 miles    
Events      
Averages and records for this station are not official NWS values.
T = Trace of Precipitation, MM = Missing Value Source: NWS Daily Summary

Daily Weather History Graph

Daily Weather History Graph

Search for Another Location

Airport or City:

Astronomy

Jul. 03, 2018 Rise Set
Actual Time 4:11 AM AKDT 9:29 PM AKDT
Civil Twilight 3:13 AM AKDT 10:27 PM AKDT
Nautical Twilight 1:23 AM AKDT 12:18 AM AKDT
Astronomical Twilight Sun does not rise Sun does not rise
Moon No Moon Rise 9:59 AM AKDT (7/3)
Length of Visible Light 19h 13m
Length of Day
17h 18m
Waning Gibbous, 74% of the Moon is Illuminated
Jul 3
Waning Gibbous
Jul 5
Last Quarter
Jul 12
New
Jul 19
First Quarter
Jul 27
Full

Hourly Weather History & Observations

Time (AKDT) Temp. Dew Point Humidity Pressure Visibility Wind Dir Wind Speed Gust Speed Precip Events Conditions
12:53 AM 53.1 °F 48.0 °F 83% 30.27 in 10.0 mi WNW 3.5 mph - N/A   Clear
1:53 AM 53.1 °F 48.9 °F 86% 30.25 in 10.0 mi WNW 4.6 mph - N/A   Clear
2:53 AM 53.1 °F 48.9 °F 86% 30.25 in 10.0 mi NW 5.8 mph - N/A   Clear
3:53 AM 52.0 °F 48.0 °F 86% 30.23 in 10.0 mi NW 5.8 mph - N/A   Clear
4:53 AM 53.1 °F 48.0 °F 83% 30.23 in 10.0 mi NW 5.8 mph - N/A   Clear
5:53 AM 55.0 °F 48.9 °F 80% 30.21 in 10.0 mi NW 8.1 mph - N/A   Clear
6:05 AM 55.9 °F 50.0 °F 80% 30.21 in 10.0 mi NW 6.9 mph - N/A   Clear
6:53 AM 57.9 °F 50.0 °F 75% 30.21 in 10.0 mi NNW 8.1 mph - N/A   Clear
7:53 AM 60.8 °F 50.0 °F 68% 30.20 in 10.0 mi NNW 11.5 mph - N/A   Clear
8:53 AM 62.6 °F 48.2 °F 59% 30.19 in 10.0 mi NNW 11.5 mph - N/A   Clear
9:53 AM 64.4 °F 50.0 °F 59% 30.18 in 10.0 mi NNW 12.7 mph - N/A   Clear
10:53 AM 66.2 °F 50.0 °F 56% 30.18 in 10.0 mi NNW 13.8 mph - N/A   Clear
11:53 AM 66.2 °F 51.8 °F 60% 30.17 in 10.0 mi NNW 13.8 mph - N/A   Clear
12:53 PM 68.0 °F 51.8 °F 56% 30.16 in 10.0 mi NNW 15.0 mph - N/A   Clear
1:53 PM 69.8 °F 50.0 °F 49% 30.15 in 10.0 mi NNW 15.0 mph - N/A   Clear
2:53 PM 72.0 °F 50.0 °F 46% 30.13 in 10.0 mi NNW 11.5 mph - N/A   Clear
3:53 PM 71.6 °F 51.8 °F 50% 30.12 in 10.0 mi NNW 12.7 mph - N/A   Clear
4:53 PM 71.6 °F 51.8 °F 50% 30.12 in 10.0 mi NW 8.1 mph - N/A   Partly Cloudy
5:53 PM 72.0 °F 50.0 °F 46% 30.12 in 10.0 mi NW 6.9 mph - N/A   Partly Cloudy
6:53 PM 71.6 °F 50.0 °F 46% 30.12 in 10.0 mi NW 6.9 mph - N/A   Clear
7:53 PM 71.6 °F 50.0 °F 46% 30.13 in 10.0 mi WNW 4.6 mph - N/A   Clear
8:53 PM 64.0 °F 52.0 °F 65% 30.13 in 10.0 mi West 3.5 mph - N/A   Clear
9:53 PM 62.1 °F 52.0 °F 70% 30.17 in 10.0 mi SSE 8.1 mph - N/A   Clear
10:53 PM 60.1 °F 53.1 °F 78% 30.17 in 10.0 mi SSE 4.6 mph - N/A   Clear
11:53 PM 57.9 °F 51.1 °F 78% 30.16 in 10.0 mi SSW 4.6 mph - N/A   Clear